| time (UTC) | temp F | wind direction | speed MPH | gust MPH | rain 1hr in | rain 24hr in | rain mn in | humidity % | barometer mb |
| 20260510142403 | 64 | 8 | 8.0 | 9.0 | 0.00 | 0.00 | 0.00 | 58 | 1014.7 |
| 20260510141900 | 64 | 315 | 6.0 | 8.0 | 0.00 | 0.00 | 0.00 | 59 | 1014.7 |
| 20260510141357 | 63 | 358 | 1.0 | 5.0 | 0.00 | 0.00 | 0.00 | 60 | 1014.6 |
| 20260510140854 | 64 | 298 | 13.0 | 16.0 | 0.00 | 0.00 | 0.00 | 59 | 1014.7 |
| 20260510140349 | 63 | 288 | 5.0 | 11.0 | 0.00 | 0.00 | 0.00 | 62 | 1014.8 |
| 20260510135843 | 63 | 286 | 2.0 | 3.0 | 0.00 | 0.00 | 0.00 | 62 | 1014.8 |
| 20260510135339 | 62 | 289 | 9.0 | 13.0 | 0.00 | 0.00 | 0.00 | 61 | 1014.7 |
| 20260510134837 | 62 | 287 | 14.0 | 16.0 | 0.00 | 0.00 | 0.00 | 61 | 1014.7 |
| 20260510134334 | 62 | 261 | 2.0 | 6.0 | 0.00 | 0.00 | 0.00 | 62 | 1014.9 |
| 20260510133830 | 62 | 350 | 4.0 | 9.0 | 0.00 | 0.00 | 0.00 | 62 | 1014.8 |
| 20260510133326 | 62 | 287 | 10.0 | 14.0 | 0.00 | 0.00 | 0.00 | 61 | 1014.6 |
| 20260510132822 | 62 | 293 | 12.0 | 15.0 | 0.00 | 0.00 | 0.00 | 62 | 1014.5 |
| 20260510132320 | 62 | 322 | 3.0 | 5.0 | 0.00 | 0.00 | 0.00 | 62 | 1014.8 |
| 20260510131817 | 62 | 90 | 0.0 | 1.0 | 0.00 | 0.00 | 0.00 | 63 | 1014.7 |
| 20260510131314 | 62 | 23 | 3.0 | 8.0 | 0.00 | 0.00 | 0.00 | 63 | 1014.8 |
| 20260510130810 | 62 | 299 | 7.0 | 10.0 | 0.00 | 0.00 | 0.00 | 63 | 1014.9 |
| 20260510130308 | 62 | 140 | 7.0 | 10.0 | 0.00 | 0.00 | 0.00 | 62 | 1014.5 |
| 20260510125804 | 62 | 313 | 5.0 | 8.0 | 0.00 | 0.00 | 0.00 | 62 | 1014.6 |
| 20260510125300 | 62 | 269 | 3.0 | 5.0 | 0.00 | 0.00 | 0.00 | 63 | 1014.6 |
| 20260510124757 | 61 | 335 | 2.0 | 5.0 | 0.00 | 0.00 | 0.00 | 64 | 1014.7 |
| 20260510124254 | 60 | 316 | 2.0 | 6.0 | 0.00 | 0.00 | 0.00 | 65 | 1014.8 |
| 20260510123749 | 60 | 308 | 6.0 | 11.0 | 0.00 | 0.00 | 0.00 | 66 | 1014.7 |
| 20260510123246 | 60 | 301 | 0.0 | 0.0 | 0.00 | 0.00 | 0.00 | 68 | 1014.3 |
| 20260510122742 | 60 | 280 | 1.0 | 6.0 | 0.00 | 0.00 | 0.00 | 67 | 1014.3 |
| 20260510122238 | 60 | 273 | 5.0 | 8.0 | 0.00 | 0.00 | 0.00 | 68 | 1014.3 |
| 20260510121734 | 59 | 263 | 0.0 | 0.0 | 0.00 | 0.00 | 0.00 | 69 | 1014.5 |
| 20260510121232 | 59 | 276 | 7.0 | 9.0 | 0.00 | 0.00 | 0.00 | 69 | 1014.2 |
| 20260510120724 | 58 | 272 | 0.0 | 0.0 | 0.00 | 0.00 | 0.00 | 72 | 1014.0 |
| 20260510120220 | 57 | 315 | 4.0 | 7.0 | 0.00 | 0.00 | 0.00 | 72 | 1014.0 |
| 20260510115716 | 57 | 287 | 1.0 | 2.0 | 0.00 | 0.00 | 0.00 | 74 | 1014.0 |
| 20260510115214 | 56 | 285 | 0.0 | 0.0 | 0.00 | 0.00 | 0.00 | 74 | 1013.9 |
| 20260510114709 | 56 | 282 | 1.0 | 5.0 | 0.00 | 0.00 | 0.00 | 74 | 1013.8 |
| 20260510114207 | 56 | 278 | 0.0 | 0.0 | 0.00 | 0.00 | 0.00 | 75 | 1013.8 |
| 20260510113701 | 56 | 257 | 0.0 | 2.0 | 0.00 | 0.00 | 0.00 | 75 | 1013.8 |
| 20260510113158 | 56 | 252 | 2.0 | 7.0 | 0.00 | 0.00 | 0.00 | 75 | 1013.7 |
| 20260510112654 | 55 | 303 | 7.0 | 8.0 | 0.00 | 0.00 | 0.00 | 76 | 1013.9 |
| 20260510112151 | 55 | 312 | 4.0 | 6.0 | 0.00 | 0.00 | 0.00 | 77 | 1013.9 |
| 20260510111642 | 55 | 299 | 2.0 | 5.0 | 0.00 | 0.00 | 0.00 | 77 | 1013.8 |
| 20260510111138 | 55 | 305 | 6.0 | 9.0 | 0.00 | 0.00 | 0.00 | 78 | 1013.8 |
| 20260510110633 | 54 | 272 | 3.0 | 6.0 | 0.00 | 0.00 | 0.00 | 79 | 1013.7 |
| 20260510110131 | 54 | 350 | 0.0 | 1.0 | 0.00 | 0.00 | 0.00 | 79 | 1013.7 |
| 20260510105626 | 54 | 317 | 3.0 | 5.0 | 0.00 | 0.00 | 0.00 | 80 | 1013.5 |
| 20260510105121 | 54 | 299 | 3.0 | 6.0 | 0.00 | 0.00 | 0.00 | 80 | 1013.4 |
| 20260510104618 | 54 | 284 | 5.0 | 8.0 | 0.00 | 0.00 | 0.00 | 81 | 1013.3 |
| 20260510104115 | 54 | 300 | 5.0 | 7.0 | 0.00 | 0.00 | 0.00 | 81 | 1013.4 |
| 20260510103612 | 53 | 310 | 7.0 | 8.0 | 0.00 | 0.00 | 0.00 | 82 | 1013.4 |
| 20260510103108 | 53 | 295 | 5.0 | 7.0 | 0.00 | 0.00 | 0.00 | 82 | 1013.3 |
| 20260510102603 | 53 | 306 | 0.0 | 0.0 | 0.00 | 0.00 | 0.00 | 83 | 1013.1 |
| 20260510102059 | 53 | 295 | 5.0 | 7.0 | 0.00 | 0.00 | 0.00 | 83 | 1013.3 |
| 20260510101557 | 53 | 297 | 8.0 | 9.0 | 0.00 | 0.00 | 0.00 | 83 | 1012.8 |
| 20260510101055 | 53 | 302 | 7.0 | 8.0 | 0.00 | 0.00 | 0.00 | 82 | 1012.7 |
| 20260510100551 | 53 | 322 | 5.0 | 7.0 | 0.00 | 0.00 | 0.00 | 83 | 1012.8 |
| 20260510100049 | 53 | 328 | 5.0 | 6.0 | 0.00 | 0.00 | 0.00 | 83 | 1012.7 |
| 20260510095545 | 53 | 310 | 7.0 | 8.0 | 0.00 | 0.00 | 0.00 | 83 | 1012.7 |
| 20260510095044 | 53 | 276 | 3.0 | 6.0 | 0.00 | 0.00 | 0.00 | 83 | 1012.7 |
| 20260510094544 | 53 | 295 | 9.0 | 9.0 | 0.00 | 0.00 | 0.00 | 83 | 1012.6 |
| 20260510094039 | 53 | 293 | 2.0 | 6.0 | 0.00 | 0.00 | 0.00 | 83 | 1012.6 |
| 20260510093535 | 53 | 313 | 6.0 | 7.0 | 0.00 | 0.00 | 0.00 | 83 | 1012.5 |
| 20260510093033 | 53 | 298 | 4.0 | 8.0 | 0.00 | 0.00 | 0.00 | 83 | 1012.5 |
| 20260510092530 | 54 | 297 | 3.0 | 6.0 | 0.00 | 0.00 | 0.00 | 82 | 1012.6 |
| 20260510092029 | 54 | 304 | 4.0 | 5.0 | 0.00 | 0.00 | 0.00 | 81 | 1012.6 |
| 20260510091526 | 54 | 302 | 4.0 | 6.0 | 0.00 | 0.00 | 0.00 | 80 | 1012.4 |
| 20260510091022 | 54 | 284 | 4.0 | 7.0 | 0.00 | 0.00 | 0.00 | 80 | 1012.2 |
| 20260510090519 | 55 | 275 | 2.0 | 6.0 | 0.00 | 0.00 | 0.00 | 79 | 1012.2 |
| 20260510090015 | 54 | 309 | 6.0 | 9.0 | 0.00 | 0.00 | 0.00 | 79 | 1012.2 |
| 20260510085515 | 55 | 336 | 1.0 | 2.0 | 0.00 | 0.00 | 0.00 | 79 | 1012.4 |
| 20260510085012 | 54 | 289 | 4.0 | 7.0 | 0.00 | 0.00 | 0.00 | 79 | 1012.1 |
| 20260510084508 | 54 | 348 | 5.0 | 7.0 | 0.00 | 0.00 | 0.00 | 80 | 1011.9 |
| 20260510084005 | 54 | 261 | 0.0 | 2.0 | 0.00 | 0.00 | 0.00 | 80 | 1012.3 |
| 20260510083502 | 54 | 36 | 0.0 | 0.0 | 0.00 | 0.00 | 0.00 | 79 | 1011.9 |
| 20260510082957 | 54 | 294 | 12.0 | 16.0 | 0.00 | 0.00 | 0.00 | 80 | 1011.9 |
| 20260510082455 | 54 | 325 | 1.0 | 3.0 | 0.00 | 0.00 | 0.00 | 79 | 1012.1 |
| 20260510081955 | 54 | 304 | 4.0 | 8.0 | 0.00 | 0.00 | 0.00 | 79 | 1011.9 |
| 20260510081450 | 54 | 301 | 6.0 | 8.0 | 0.00 | 0.00 | 0.00 | 80 | 1011.8 |
| 20260510080947 | 54 | 15 | 2.0 | 5.0 | 0.00 | 0.00 | 0.00 | 80 | 1011.8 |
| 20260510080445 | 54 | 257 | 0.0 | 1.0 | 0.00 | 0.00 | 0.00 | 80 | 1011.8 |
| 20260510075942 | 54 | 312 | 5.0 | 7.0 | 0.00 | 0.00 | 0.00 | 80 | 1011.7 |
| 20260510075440 | 54 | 3 | 1.0 | 5.0 | 0.00 | 0.00 | 0.00 | 80 | 1011.7 |
| 20260510074937 | 54 | 296 | 4.0 | 7.0 | 0.00 | 0.00 | 0.00 | 80 | 1011.8 |
| 20260510074434 | 54 | 313 | 5.0 | 10.0 | 0.00 | 0.00 | 0.00 | 80 | 1011.6 |
| 20260510073930 | 54 | 57 | 1.0 | 6.0 | 0.00 | 0.00 | 0.00 | 80 | 1011.8 |
| 20260510073426 | 54 | 303 | 0.0 | 1.0 | 0.00 | 0.00 | 0.00 | 80 | 1011.6 |
| 20260510072922 | 54 | 311 | 4.0 | 7.0 | 0.00 | 0.00 | 0.00 | 80 | 1011.7 |
| 20260510072420 | 54 | 347 | 0.0 | 0.0 | 0.00 | 0.00 | 0.00 | 81 | 1011.6 |
| 20260510071915 | 54 | 271 | 8.0 | 14.0 | 0.00 | 0.00 | 0.00 | 83 | 1011.5 |
| 20260510071411 | 53 | 305 | 3.0 | 6.0 | 0.00 | 0.00 | 0.00 | 84 | 1012.1 |
| 20260510070910 | 53 | 305 | 5.0 | 6.0 | 0.00 | 0.00 | 0.00 | 84 | 1011.8 |
| 20260510070407 | 53 | 234 | 1.0 | 2.0 | 0.00 | 0.00 | 0.00 | 84 | 1011.8 |
| 20260510065902 | 53 | 274 | 0.0 | 1.0 | 0.00 | 0.00 | 0.00 | 84 | 1011.7 |
| 20260510065359 | 53 | 27 | 5.0 | 7.0 | 0.00 | 0.00 | 0.00 | 84 | 1011.7 |
| 20260510064855 | 54 | 302 | 1.0 | 2.0 | 0.00 | 0.00 | 0.00 | 84 | 1011.5 |
| 20260510064353 | 54 | 322 | 5.0 | 7.0 | 0.00 | 0.00 | 0.00 | 83 | 1011.8 |
| 20260510063849 | 54 | 278 | 5.0 | 9.0 | 0.00 | 0.00 | 0.00 | 83 | 1011.8 |
| 20260510063346 | 54 | 257 | 6.0 | 8.0 | 0.00 | 0.00 | 0.00 | 83 | 1011.7 |
| 20260510062843 | 54 | 310 | 7.0 | 9.0 | 0.00 | 0.00 | 0.00 | 83 | 1011.6 |
| 20260510062338 | 54 | 288 | 11.0 | 14.0 | 0.00 | 0.00 | 0.00 | 82 | 1011.5 |
| 20260510061833 | 54 | 353 | 2.0 | 7.0 | 0.00 | 0.00 | 0.00 | 82 | 1011.8 |
| 20260510061331 | 54 | 305 | 3.0 | 7.0 | 0.00 | 0.00 | 0.00 | 82 | 1011.6 |
| 20260510060826 | 54 | 286 | 7.0 | 10.0 | 0.00 | 0.00 | 0.00 | 83 | 1011.5 |
| 20260510060324 | 54 | 319 | 6.0 | 8.0 | 0.00 | 0.00 | 0.00 | 82 | 1011.5 |
| 20260510055821 | 54 | 328 | 1.0 | 3.0 | 0.00 | 0.00 | 0.00 | 83 | 1011.8 |
| 20260510055319 | 54 | 301 | 6.0 | 8.0 | 0.00 | 0.00 | 0.00 | 82 | 1011.8 |
| 20260510054819 | 54 | 8 | 5.0 | 9.0 | 0.00 | 0.00 | 0.00 | 82 | 1011.6 |
| 20260510054315 | 54 | 4 | 5.0 | 7.0 | 0.00 | 0.00 | 0.00 | 83 | 1011.6 |
| 20260510053809 | 54 | 320 | 6.0 | 8.0 | 0.00 | 0.00 | 0.00 | 82 | 1011.9 |
| 20260510053300 | 54 | 332 | 2.0 | 6.0 | 0.00 | 0.00 | 0.00 | 83 | 1011.9 |
| 20260510052756 | 55 | 301 | 4.0 | 7.0 | 0.00 | 0.00 | 0.00 | 82 | 1011.9 |
| 20260510052251 | 55 | 292 | 5.0 | 8.0 | 0.00 | 0.00 | 0.00 | 81 | 1011.9 |
| 20260510051748 | 54 | 269 | 7.0 | 9.0 | 0.00 | 0.00 | 0.00 | 82 | 1011.6 |
| 20260510051239 | 54 | 316 | 2.0 | 5.0 | 0.00 | 0.00 | 0.00 | 82 | 1011.9 |
| 20260510050736 | 55 | 321 | 4.0 | 8.0 | 0.00 | 0.00 | 0.00 | 81 | 1011.7 |
| 20260510050233 | 55 | 309 | 5.0 | 7.0 | 0.00 | 0.00 | 0.00 | 81 | 1011.7 |
| 20260510045730 | 54 | 306 | 6.0 | 8.0 | 0.00 | 0.00 | 0.00 | 82 | 1011.7 |
| 20260510045226 | 54 | 30 | 0.0 | 0.0 | 0.00 | 0.00 | 0.00 | 81 | 1011.9 |
| 20260510044723 | 55 | 349 | 3.0 | 6.0 | 0.00 | 0.00 | 0.00 | 81 | 1011.8 |
| 20260510044221 | 55 | 35 | 0.0 | 0.0 | 0.00 | 0.00 | 0.00 | 80 | 1011.7 |
| 20260510043716 | 55 | 245 | 0.0 | 0.0 | 0.00 | 0.00 | 0.00 | 79 | 1012.1 |
| 20260510043213 | 55 | 310 | 5.0 | 8.0 | 0.00 | 0.00 | 0.00 | 79 | 1011.9 |
| 20260510042710 | 55 | 277 | 8.0 | 10.0 | 0.00 | 0.00 | 0.00 | 79 | 1011.9 |
| 20260510042206 | 55 | 292 | 4.0 | 6.0 | 0.00 | 0.00 | 0.00 | 79 | 1011.8 |
| 20260510041703 | 55 | 294 | 3.0 | 8.0 | 0.00 | 0.00 | 0.00 | 78 | 1011.8 |
| 20260510041201 | 55 | 296 | 9.0 | 10.0 | 0.00 | 0.00 | 0.00 | 78 | 1012.1 |
| 20260510040657 | 55 | 296 | 7.0 | 8.0 | 0.00 | 0.00 | 0.00 | 78 | 1011.8 |
| 20260510040154 | 55 | 276 | 5.0 | 7.0 | 0.00 | 0.00 | 0.00 | 78 | 1011.8 |
| 20260510035650 | 56 | 305 | 3.0 | 5.0 | 0.00 | 0.00 | 0.00 | 77 | 1011.6 |
| 20260510035145 | 55 | 285 | 4.0 | 7.0 | 0.00 | 0.00 | 0.00 | 77 | 1011.6 |
| 20260510034642 | 55 | 310 | 0.0 | 0.0 | 0.00 | 0.00 | 0.00 | 77 | 1011.8 |
| 20260510034139 | 56 | 300 | 1.0 | 2.0 | 0.00 | 0.00 | 0.00 | 77 | 1011.6 |
| 20260510033635 | 56 | 292 | 5.0 | 6.0 | 0.00 | 0.00 | 0.00 | 76 | 1011.7 |
| 20260510033133 | 56 | 313 | 9.0 | 11.0 | 0.00 | 0.00 | 0.00 | 76 | 1011.8 |
| 20260510032630 | 56 | 332 | 1.0 | 3.0 | 0.00 | 0.00 | 0.00 | 76 | 1011.8 |
| 20260510032125 | 56 | 316 | 2.0 | 5.0 | 0.00 | 0.00 | 0.00 | 76 | 1011.7 |
| 20260510031620 | 56 | 298 | 1.0 | 3.0 | 0.00 | 0.00 | 0.00 | 76 | 1011.9 |
| 20260510031117 | 56 | 321 | 4.0 | 6.0 | 0.00 | 0.00 | 0.00 | 76 | 1011.6 |
| 20260510030611 | 56 | 315 | 6.0 | 7.0 | 0.00 | 0.00 | 0.00 | 75 | 1011.7 |
| 20260510030109 | 55 | 249 | 0.0 | 0.0 | 0.00 | 0.00 | 0.00 | 75 | 1011.8 |
| 20260510025606 | 56 | 304 | 0.0 | 0.0 | 0.00 | 0.00 | 0.00 | 75 | 1011.8 |
| 20260510025104 | 55 | 355 | 2.0 | 6.0 | 0.00 | 0.00 | 0.00 | 75 | 1011.8 |
| 20260510024600 | 55 | 298 | 7.0 | 9.0 | 0.00 | 0.00 | 0.00 | 75 | 1012.1 |
| 20260510024057 | 55 | 329 | 2.0 | 3.0 | 0.00 | 0.00 | 0.00 | 75 | 1011.8 |
| 20260510023553 | 55 | 310 | 0.0 | 0.0 | 0.00 | 0.00 | 0.00 | 74 | 1011.8 |
| 20260510023050 | 56 | 312 | 0.0 | 0.0 | 0.00 | 0.00 | 0.00 | 74 | 1011.7 |
| 20260510022549 | 56 | 357 | 0.0 | 0.0 | 0.00 | 0.00 | 0.00 | 73 | 1011.8 |
| 20260510022044 | 56 | 329 | 0.0 | 0.0 | 0.00 | 0.00 | 0.00 | 73 | 1012.1 |
| 20260510021540 | 56 | 253 | 0.0 | 0.0 | 0.00 | 0.00 | 0.00 | 72 | 1011.5 |
| 20260510021038 | 56 | 308 | 0.0 | 0.0 | 0.00 | 0.00 | 0.00 | 72 | 1011.5 |
| 20260510020532 | 56 | 310 | 0.0 | 0.0 | 0.00 | 0.00 | 0.00 | 72 | 1011.6 |
| 20260510020028 | 56 | 283 | 0.0 | 0.0 | 0.00 | 0.00 | 0.00 | 72 | 1011.3 |
| 20260510015518 | 56 | 297 | 0.0 | 0.0 | 0.00 | 0.00 | 0.00 | 71 | 1011.5 |
| 20260510015014 | 56 | 238 | 0.0 | 0.0 | 0.00 | 0.00 | 0.00 | 72 | 1011.3 |
| 20260510014511 | 56 | 283 | 0.0 | 0.0 | 0.00 | 0.00 | 0.00 | 71 | 1011.1 |
| 20260510014009 | 56 | 355 | 0.0 | 0.0 | 0.00 | 0.00 | 0.00 | 71 | 1011.1 |
| 20260510013508 | 56 | 313 | 0.0 | 0.0 | 0.00 | 0.00 | 0.00 | 70 | 1011.0 |
| 20260510013004 | 56 | 342 | 0.0 | 0.0 | 0.00 | 0.00 | 0.00 | 70 | 1010.8 |
| 20260510012458 | 57 | 341 | 0.0 | 0.0 | 0.00 | 0.00 | 0.00 | 70 | 1010.5 |
| 20260510011954 | 57 | 4 | 0.0 | 0.0 | 0.00 | 0.00 | 0.00 | 69 | 1010.7 |
| 20260510011449 | 56 | 300 | 0.0 | 0.0 | 0.00 | 0.00 | 0.00 | 69 | 1010.7 |
| 20260510010945 | 57 | 312 | 0.0 | 0.0 | 0.00 | 0.00 | 0.00 | 69 | 1010.5 |
| 20260510010443 | 57 | 29 | 0.0 | 0.0 | 0.00 | 0.00 | 0.00 | 68 | 1010.7 |
| 20260510005939 | 57 | 303 | 0.0 | 0.0 | 0.00 | 0.00 | 0.00 | 68 | 1010.6 |
| 20260510005435 | 57 | 339 | 0.0 | 0.0 | 0.00 | 0.00 | 0.00 | 67 | 1010.6 |
| 20260510004933 | 57 | 6 | 0.0 | 0.0 | 0.00 | 0.00 | 0.00 | 67 | 1010.5 |
| 20260510004430 | 57 | 296 | 0.0 | 0.0 | 0.00 | 0.00 | 0.00 | 66 | 1010.4 |
| 20260510003929 | 57 | 307 | 3.0 | 6.0 | 0.00 | 0.00 | 0.00 | 66 | 1010.1 |
| 20260510003425 | 58 | 336 | 0.0 | 0.0 | 0.00 | 0.00 | 0.00 | 66 | 1010.5 |
| 20260510002924 | 58 | 302 | 0.0 | 1.0 | 0.00 | 0.00 | 0.00 | 65 | 1010.5 |
| 20260510002421 | 58 | 5 | 1.0 | 3.0 | 0.00 | 0.00 | 0.00 | 64 | 1010.2 |
| 20260510001918 | 59 | 23 | 0.0 | 0.0 | 0.00 | 0.00 | 0.00 | 64 | 1010.2 |
| 20260510001415 | 59 | 317 | 0.0 | 1.0 | 0.00 | 0.00 | 0.00 | 63 | 1010.3 |
| 20260510000912 | 59 | 299 | 0.0 | 1.0 | 0.00 | 0.00 | 0.00 | 62 | 1010.2 |
| 20260510000411 | 59 | 271 | 6.0 | 10.0 | 0.00 | 0.00 | 0.00 | 62 | 1010.2 |
| 20260509235905 | 59 | 305 | 5.0 | 9.0 | 0.00 | 0.00 | 0.00 | 61 | 1009.9 |
| 20260509235402 | 60 | 330 | 6.0 | 8.0 | 0.00 | 0.00 | 0.00 | 61 | 1009.9 |
| 20260509234858 | 60 | 333 | 3.0 | 7.0 | 0.00 | 0.00 | 0.00 | 61 | 1009.6 |
| 20260509234355 | 60 | 284 | 0.0 | 3.0 | 0.00 | 0.00 | 0.00 | 60 | 1009.9 |
| 20260509233853 | 61 | 297 | 5.0 | 7.0 | 0.00 | 0.00 | 0.00 | 59 | 1009.8 |
| 20260509233351 | 61 | 274 | 3.0 | 6.0 | 0.00 | 0.00 | 0.00 | 59 | 1009.8 |
| 20260509232846 | 61 | 54 | 1.0 | 6.0 | 0.00 | 0.00 | 0.00 | 59 | 1009.8 |
| 20260509232344 | 61 | 305 | 9.0 | 11.0 | 0.00 | 0.00 | 0.00 | 58 | 1009.8 |
| 20260509231840 | 61 | 333 | 1.0 | 6.0 | 0.00 | 0.00 | 0.00 | 58 | 1009.8 |
| 20260509231337 | 61 | 270 | 0.0 | 0.0 | 0.00 | 0.00 | 0.00 | 58 | 1009.5 |
| 20260509230835 | 61 | 302 | 10.0 | 13.0 | 0.00 | 0.00 | 0.00 | 58 | 1009.2 |
| 20260509230332 | 61 | 266 | 14.0 | 18.0 | 0.00 | 0.00 | 0.00 | 57 | 1009.3 |
| 20260509225826 | 61 | 287 | 5.0 | 6.0 | 0.00 | 0.00 | 0.00 | 58 | 1009.5 |
| 20260509225324 | 61 | 282 | 5.0 | 7.0 | 0.00 | 0.00 | 0.00 | 58 | 1009.4 |
| 20260509224820 | 62 | 331 | 0.0 | 0.0 | 0.00 | 0.00 | 0.00 | 57 | 1009.6 |
| 20260509224316 | 61 | 272 | 9.0 | 17.0 | 0.00 | 0.00 | 0.00 | 57 | 1009.5 |
| 20260509223813 | 62 | 284 | 13.0 | 14.0 | 0.00 | 0.00 | 0.00 | 55 | 1009.5 |
| 20260509223310 | 61 | 289 | 11.0 | 11.0 | 0.00 | 0.00 | 0.00 | 56 | 1009.9 |
| 20260509222807 | 62 | 293 | 9.0 | 15.0 | 0.00 | 0.00 | 0.00 | 56 | 1009.9 |
| 20260509222306 | 62 | 274 | 5.0 | 8.0 | 0.00 | 0.00 | 0.00 | 55 | 1009.8 |
| 20260509221758 | 63 | 276 | 14.0 | 16.0 | 0.00 | 0.00 | 0.00 | 54 | 1009.8 |
| 20260509221255 | 62 | 293 | 5.0 | 10.0 | 0.00 | 0.00 | 0.00 | 55 | 1010.1 |
| 20260509220750 | 62 | 15 | 0.0 | 1.0 | 0.00 | 0.00 | 0.00 | 56 | 1009.8 |
| 20260509220247 | 62 | 298 | 5.0 | 9.0 | 0.00 | 0.00 | 0.00 | 54 | 1010.0 |
| 20260509215742 | 63 | 301 | 6.0 | 8.0 | 0.00 | 0.00 | 0.00 | 54 | 1009.8 |
| 20260509215239 | 62 | 329 | 0.0 | 0.0 | 0.00 | 0.00 | 0.00 | 54 | 1010.0 |
| 20260509214736 | 62 | 308 | 1.0 | 3.0 | 0.00 | 0.00 | 0.00 | 56 | 1009.9 |
| 20260509214234 | 62 | 257 | 9.0 | 10.0 | 0.00 | 0.00 | 0.00 | 53 | 1009.8 |
| 20260509213730 | 62 | 328 | 8.0 | 13.0 | 0.00 | 0.00 | 0.00 | 53 | 1010.1 |
| 20260509213226 | 62 | 279 | 6.0 | 10.0 | 0.00 | 0.00 | 0.00 | 52 | 1009.9 |
| 20260509212723 | 63 | 306 | 0.0 | 1.0 | 0.00 | 0.00 | 0.00 | 53 | 1009.6 |
| 20260509212220 | 63 | 270 | 2.0 | 5.0 | 0.00 | 0.00 | 0.00 | 52 | 1009.5 |
| 20260509211716 | 62 | 308 | 1.0 | 2.0 | 0.00 | 0.00 | 0.00 | 53 | 1009.8 |
| 20260509211213 | 62 | 294 | 6.0 | 7.0 | 0.00 | 0.00 | 0.00 | 55 | 1009.5 |
| 20260509210709 | 61 | 321 | 0.0 | 0.0 | 0.00 | 0.00 | 0.00 | 56 | 1009.4 |
| 20260509210202 | 62 | 289 | 11.0 | 14.0 | 0.00 | 0.00 | 0.00 | 54 | 1009.4 |
| 20260509205701 | 62 | 297 | 2.0 | 5.0 | 0.00 | 0.00 | 0.00 | 53 | 1009.6 |
| 20260509205201 | 62 | 310 | 1.0 | 3.0 | 0.00 | 0.00 | 0.00 | 54 | 1009.3 |
| 20260509204658 | 62 | 284 | 9.0 | 14.0 | 0.00 | 0.00 | 0.00 | 52 | 1009.5 |
| 20260509204154 | 63 | 347 | 6.0 | 10.0 | 0.00 | 0.00 | 0.00 | 51 | 1009.3 |
| 20260509203650 | 62 | 275 | 0.0 | 0.0 | 0.00 | 0.00 | 0.00 | 52 | 1009.2 |
| 20260509203148 | 64 | 275 | 12.0 | 16.0 | 0.00 | 0.00 | 0.00 | 49 | 1009.2 |
| 20260509202643 | 64 | 21 | 4.0 | 9.0 | 0.00 | 0.00 | 0.00 | 49 | 1008.9 |
| 20260509202138 | 63 | 292 | 4.0 | 6.0 | 0.00 | 0.00 | 0.00 | 48 | 1009.2 |
| 20260509201634 | 63 | 234 | 1.0 | 6.0 | 0.00 | 0.00 | 0.00 | 49 | 1008.9 |
| 20260509201131 | 62 | 261 | 3.0 | 8.0 | 0.00 | 0.00 | 0.00 | 51 | 1009.0 |
| 20260509200626 | 63 | 279 | 12.0 | 14.0 | 0.00 | 0.00 | 0.00 | 47 | 1008.9 |
| 20260509200117 | 63 | 322 | 0.0 | 0.0 | 0.00 | 0.00 | 0.00 | 51 | 1009.2 |
| 20260509195613 | 62 | 317 | 4.0 | 7.0 | 0.00 | 0.00 | 0.00 | 53 | 1009.1 |
| 20260509195108 | 62 | 302 | 5.0 | 8.0 | 0.00 | 0.00 | 0.00 | 52 | 1009.1 |
| 20260509194607 | 62 | 312 | 2.0 | 3.0 | 0.00 | 0.00 | 0.00 | 51 | 1008.8 |
| 20260509194105 | 62 | 241 | 0.0 | 0.0 | 0.00 | 0.00 | 0.00 | 52 | 1008.9 |
| 20260509193601 | 63 | 272 | 6.0 | 7.0 | 0.00 | 0.00 | 0.00 | 50 | 1008.7 |
| 20260509193057 | 62 | 107 | 0.0 | 0.0 | 0.00 | 0.00 | 0.00 | 51 | 1008.9 |
| 20260509192554 | 62 | 300 | 9.0 | 13.0 | 0.00 | 0.00 | 0.00 | 51 | 1008.9 |
| 20260509192048 | 62 | 279 | 8.0 | 9.0 | 0.00 | 0.00 | 0.00 | 52 | 1008.8 |
| 20260509191543 | 62 | 274 | 0.0 | 0.0 | 0.00 | 0.00 | 0.00 | 51 | 1008.9 |
| 20260509191039 | 63 | 268 | 7.0 | 10.0 | 0.00 | 0.00 | 0.00 | 50 | 1008.9 |
| 20260509190536 | 63 | 282 | 9.0 | 13.0 | 0.00 | 0.00 | 0.00 | 49 | 1008.8 |
| 20260509190034 | 62 | 275 | 8.0 | 10.0 | 0.00 | 0.00 | 0.00 | 50 | 1008.8 |
| 20260509185531 | 62 | 266 | 10.0 | 11.0 | 0.00 | 0.00 | 0.00 | 48 | 1008.9 |
| 20260509185027 | 62 | 311 | 14.0 | 16.0 | 0.00 | 0.00 | 0.00 | 48 | 1008.8 |
| 20260509184526 | 62 | 295 | 12.0 | 15.0 | 0.00 | 0.00 | 0.00 | 47 | 1008.9 |
| 20260509184022 | 62 | 286 | 0.0 | 0.0 | 0.00 | 0.00 | 0.00 | 50 | 1009.0 |
| 20260509183517 | 64 | 270 | 0.0 | 1.0 | 0.00 | 0.00 | 0.00 | 49 | 1008.8 |
| 20260509183013 | 64 | 255 | 3.0 | 5.0 | 0.00 | 0.00 | 0.00 | 48 | 1009.0 |
| 20260509182510 | 63 | 266 | 9.0 | 10.0 | 0.00 | 0.00 | 0.00 | 48 | 1009.1 |
| 20260509182007 | 63 | 276 | 0.0 | 0.0 | 0.00 | 0.00 | 0.00 | 51 | 1008.7 |
| 20260509181505 | 62 | 283 | 12.0 | 16.0 | 0.00 | 0.00 | 0.00 | 52 | 1009.0 |
| 20260509181002 | 62 | 228 | 9.0 | 10.0 | 0.00 | 0.00 | 0.00 | 53 | 1008.6 |
| 20260509180457 | 62 | 218 | 0.0 | 0.0 | 0.00 | 0.00 | 0.00 | 54 | 1008.8 |
| 20260509175955 | 63 | 303 | 0.0 | 0.0 | 0.00 | 0.00 | 0.00 | 54 | 1008.8 |
| 20260509175451 | 62 | 228 | 0.0 | 0.0 | 0.00 | 0.00 | 0.00 | 57 | 1008.7 |
| 20260509174947 | 62 | 284 | 1.0 | 5.0 | 0.00 | 0.00 | 0.00 | 55 | 1008.9 |
| 20260509174443 | 62 | 283 | 1.0 | 6.0 | 0.00 | 0.00 | 0.00 | 56 | 1008.7 |
| 20260509173938 | 61 | 280 | 0.0 | 2.0 | 0.00 | 0.00 | 0.00 | 56 | 1008.8 |
| 20260509173433 | 62 | 273 | 9.0 | 10.0 | 0.00 | 0.00 | 0.00 | 57 | 1008.8 |
| 20260509172930 | 61 | 233 | 0.0 | 0.0 | 0.00 | 0.00 | 0.00 | 56 | 1008.9 |
| 20260509172427 | 61 | 291 | 5.0 | 8.0 | 0.00 | 0.00 | 0.00 | 56 | 1008.9 |
| 20260509171923 | 61 | 315 | 1.0 | 3.0 | 0.00 | 0.00 | 0.00 | 55 | 1009.0 |
| 20260509171419 | 62 | 304 | 0.0 | 0.0 | 0.00 | 0.00 | 0.00 | 55 | 1009.1 |
| 20260509170915 | 62 | 282 | 7.0 | 11.0 | 0.00 | 0.00 | 0.00 | 56 | 1009.2 |
| 20260509170410 | 61 | 299 | 0.0 | 0.0 | 0.00 | 0.00 | 0.00 | 57 | 1009.2 |
| 20260509165907 | 61 | 256 | 7.0 | 14.0 | 0.00 | 0.00 | 0.00 | 56 | 1009.1 |
| 20260509165400 | 61 | 274 | 6.0 | 7.0 | 0.00 | 0.00 | 0.00 | 55 | 1009.3 |
| 20260509164857 | 61 | 275 | 6.0 | 7.0 | 0.00 | 0.00 | 0.00 | 56 | 1009.3 |
| 20260509164352 | 61 | 290 | 11.0 | 14.0 | 0.00 | 0.00 | 0.00 | 56 | 1009.2 |
| 20260509163849 | 63 | 232 | 7.0 | 10.0 | 0.00 | 0.00 | 0.00 | 53 | 1009.0 |
| 20260509163346 | 62 | 238 | 0.0 | 0.0 | 0.00 | 0.00 | 0.00 | 55 | 1009.1 |
| 20260509162845 | 60 | 249 | 1.0 | 5.0 | 0.00 | 0.00 | 0.00 | 58 | 1009.2 |
| 20260509162338 | 62 | 204 | 0.0 | 0.0 | 0.00 | 0.00 | 0.00 | 56 | 1009.3 |
| 20260509161835 | 60 | 185 | 0.0 | 0.0 | 0.00 | 0.00 | 0.00 | 58 | 1009.3 |
| 20260509161331 | 60 | 259 | 0.0 | 0.0 | 0.00 | 0.00 | 0.00 | 59 | 1009.2 |
| 20260509160826 | 61 | 308 | 13.0 | 15.0 | 0.00 | 0.00 | 0.00 | 59 | 1009.1 |
| 20260509160317 | 59 | 274 | 13.0 | 16.0 | 0.00 | 0.00 | 0.00 | 60 | 1009.3 |
| 20260509155812 | 59 | 198 | 8.0 | 10.0 | 0.00 | 0.00 | 0.00 | 60 | 1009.2 |
| 20260509155309 | 59 | 258 | 4.0 | 9.0 | 0.00 | 0.00 | 0.00 | 63 | 1009.1 |
| 20260509154805 | 58 | 262 | 0.0 | 1.0 | 0.00 | 0.00 | 0.00 | 67 | 1009.2 |
| 20260509154302 | 59 | 129 | 0.0 | 0.0 | 0.00 | 0.00 | 0.00 | 64 | 1009.2 |
| 20260509153759 | 58 | 8 | 1.0 | 3.0 | 0.00 | 0.00 | 0.00 | 66 | 1009.0 |
| 20260509153255 | 58 | 230 | 5.0 | 8.0 | 0.00 | 0.00 | 0.00 | 65 | 1009.0 |
| 20260509152752 | 58 | 299 | 0.0 | 0.0 | 0.00 | 0.00 | 0.00 | 64 | 1009.0 |
| 20260509152248 | 59 | 260 | 5.0 | 8.0 | 0.00 | 0.00 | 0.00 | 62 | 1009.2 |
| 20260509151745 | 60 | 265 | 0.0 | 0.0 | 0.00 | 0.00 | 0.00 | 62 | 1009.1 |
| 20260509151242 | 58 | 310 | 0.0 | 0.0 | 0.00 | 0.00 | 0.00 | 66 | 1009.4 |
| 20260509150740 | 56 | 109 | 0.0 | 0.0 | 0.00 | 0.00 | 0.00 | 70 | 1009.2 |
| 20260509150238 | 56 | 92 | 0.0 | 0.0 | 0.00 | 0.00 | 0.00 | 71 | 1009.2 |
| 20260509145734 | 55 | 133 | 0.0 | 0.0 | 0.00 | 0.00 | 0.00 | 73 | 1009.1 |
| 20260509145229 | 56 | 183 | 0.0 | 0.0 | 0.00 | 0.00 | 0.00 | 71 | 1009.3 |
| 20260509144726 | 56 | 146 | 0.0 | 0.0 | 0.00 | 0.00 | 0.00 | 70 | 1009.1 |
| 20260509144222 | 58 | 183 | 0.0 | 2.0 | 0.00 | 0.00 | 0.00 | 67 | 1009.0 |
| 20260509143720 | 58 | 279 | 1.0 | 5.0 | 0.00 | 0.00 | 0.00 | 62 | 1009.1 |
| 20260509143217 | 57 | 308 | 0.0 | 0.0 | 0.00 | 0.00 | 0.00 | 66 | 1009.3 |
| 20260509142713 | 58 | 91 | 0.0 | 0.0 | 0.00 | 0.00 | 0.00 | 68 | 1009.0 |